User: anonymous   Login
Location: Black Rock Desert
(40.7548°N, 119.2364°W)
Time: 00:32:08
(UTC-07:00)
Language:

Cosmos 1340 Rocket - Orbit

View from above orbital plane
View from above orbital plane
View from above satellite
View from above satellite

Ground track
Ground track

The orbit data is extracted from the following two-line orbital elements,

1 13068U 82013B   17296.91043440 +.00000167 +00000-0 +95434-5 0  9996
2 13068 081.2021 075.5072 0020263 250.3088 109.5950 15.07015160942616
Epoch (UTC): 23 October 2017 21:51:01
Eccentricity: 0.0020263
inclination: 81.2021°
perigee height: 531 km
apogee height: 559 km
right ascension of ascending node: 75.5072°
argument of perigee: 250.3088°
revolutions per day: 15.07015160
mean anomaly at epoch: 109.5950°
orbit number at epoch: 94261

The dashed part of the orbit path shows where the satellite is in the earth's shadow,  

DLR